Location: Gayhead
(42.3415°N, 73.9701°W)
Time: 21:27:35
(UTC+00:00)

Daily predictions for brighter satellites

Satellite Brightness Start Highest point End
(mag) Time Altitude Azimuth Time Altitude Azimuth Time Altitude Azimuth
Cosmos 1605 Rocket 4.4 23:26:28 10° NNW 23:32:51 74° W 23:39:09 10° S
Cosmos 2173 Rocket 4.4 23:28:12 10° N 23:34:15 43° ENE 23:40:15 10° SSE
GEOS 3 Rocket 3.7 23:30:01 10° NE 23:35:25 67° SE 23:40:45 10° SSW
Cosmos 676 Rocket 4.5 23:31:19 10° N 23:36:17 42° ENE 23:41:14 10° SE
In-Cosmos 22 4.4 23:33:31 10° N 23:39:03 53° ENE 23:44:39 10° SSE
Okean 3 3.9 23:35:04 10° N 23:39:04 40° ENE 23:43:04 10° SSE
Cosmos 1707 3.0 23:35:53 10° N 23:39:30 42° ENE 23:43:07 10° SSE
Lacrosse 5 rocket 3.0 23:38:50 10° SSE 23:41:41 17° ESE 23:44:28 10° E
Cosmos 1674 3.2 23:39:05 10° N 23:42:33 36° ENE 23:46:00 10° SE
Cosmos 2322 Rocket 3.7 23:37:13 10° NW 23:42:34 42° WSW 23:47:53 10° S
COSMO-SKYMED 1 4.2 23:39:24 10° N 23:43:28 39° WNW 23:47:30 10° SW
Cosmos 2333 4.3 23:38:32 10° NNW 23:44:22 88° ENE 23:50:07 10° SSE
Cosmos 1190 Rocket 4.0 23:39:35 10° NNW 23:44:49 82° ENE 23:50:02 10° SSE
Cosmos 2237 Rocket 3.8 23:41:09 10° N 23:44:53 18° NE 23:48:35 10° E
Cosmos 2100 Rocket 4.2 23:38:57 10° N 23:45:12 55° ENE 23:51:22 10° SSE
Okean 1-7 3.2 23:42:31 10° N 23:46:46 49° E 23:50:58 10° SSE
Cosmos 1975 3.3 23:43:54 10° SSE 23:47:33 37° E 23:51:14 10° NNE
Cosmos 1726 3.6 23:45:44 10° SE 23:47:52 16° E 23:50:01 10° NE
SJ-6B 3.8 23:45:02 10° SE 23:48:22 27° ENE 23:51:39 10° NNE
USA 308 3.0 23:45:50 10° WNW 23:49:33 60° SW 23:53:12 10° SE
Cosmos 1933 Rocket 3.6 23:47:55 10° S 23:52:09 57° E 23:56:25 10° NNE
